Southend-On-Sea, United Kingdom

6:35 AM GMT on November 23, 2017 (GMT +0000)
Southend

Weather History for EGMC - March, 2013

Change the Weather History Date:

Thursday, March 28, 2013

  Actual Average Record
Temperature  
Mean Temperature 34 °F -  
Max Temperature 39 °F 55 °F 64 °F (2012)
Min Temperature 30 °F 40 °F 30 °F (2013)
Degree Days  
Heating Degree Days 30    
Moisture  
Dew Point 25 °F    
Average Humidity 68    
Maximum Humidity 86    
Minimum Humidity 52    
Precipitation  
Precipitation 0.00 in - - ()
Sea Level Pressure  
Sea Level Pressure 29.89 in    
Wind  
Wind Speed 9 mph ()    
Max Wind Speed 16 mph    
Max Gust Speed -    
Visibility 6.0 miles    
Events      
Averages and records for this station are not official NWS values.
T = Trace of Precipitation, MM = Missing Value Source: Averaged Metar Reports

Daily Weather History Graph

Daily Weather History Graph

Search for Another Location

Airport or City:

Trip Planner

Search our weather history database for the weather conditions in past years. The results will help you decide how hot, cold, wet, or windy it might be!

Date:

Astronomy

Mar. 28, 2013 Rise Set
Actual Time 5:41 AM GMT 6:24 PM GMT
Civil Twilight 5:07 AM GMT 6:57 PM GMT
Nautical Twilight 4:27 AM GMT 7:38 PM GMT
Astronomical Twilight 3:44 AM GMT 8:21 PM GMT
Moon 8:14 PM GMT (3/28) 5:48 AM GMT (3/28)
Length of Visible Light 13h 50m
Length of Day
12h 42m
Full, 98% of the Moon is Illuminated
Mar 28
Full
Apr 3
Last Quarter
Apr 10
New
Apr 18
First Quarter
Apr 25
Full

Hourly Weather History & Observations

Time (GMT) Temp. Windchill Dew Point Humidity Pressure Visibility Wind Dir Wind Speed Gust Speed Precip Events Conditions
1:50 AM 30.2 °F 22.6 °F 26.6 °F 86% 29.86 in - North 8.1 mph - N/A   Clear
2:50 AM 30.2 °F 22.6 °F 26.6 °F 86% 29.83 in - North 8.1 mph - N/A   Clear
3:50 AM 30.2 °F 22.6 °F 26.6 °F 86% 29.83 in 5.6 mi North 8.1 mph - N/A   Unknown
4:50 AM 30.2 °F 22.6 °F 26.6 °F 86% 29.83 in 5.6 mi North 8.1 mph - N/A   Unknown
5:20 AM 30.2 °F 22.6 °F 26.6 °F 86% 29.83 in 5.6 mi North 8.1 mph - N/A   Unknown
5:50 AM 30.2 °F 23.4 °F 26.6 °F 86% 29.83 in 5.6 mi North 6.9 mph - N/A   Unknown
6:20 AM 30.2 °F 22.6 °F 26.6 °F 86% 29.83 in 5.6 mi North 8.1 mph - N/A   Unknown
6:50 AM 30.2 °F 23.4 °F 26.6 °F 86% 29.83 in 5.6 mi North 6.9 mph - N/A   Unknown
7:50 AM 33.8 °F 26.4 °F 28.4 °F 81% 29.86 in 5.6 mi NNE 9.2 mph - N/A   Unknown
8:20 AM 35.6 °F 28.0 °F 28.4 °F 75% 29.86 in 5.6 mi NNE 10.4 mph - N/A   Partly Cloudy
8:50 AM 37.4 °F 30.3 °F 30.2 °F 75% 29.86 in 5.6 mi NNE 10.4 mph - N/A   Partly Cloudy
9:20 AM 37.4 °F 29.8 °F 28.4 °F 70% 29.86 in 5.6 mi NE 11.5 mph - N/A   Mostly Cloudy
9:50 AM 37.4 °F 28.2 °F 26.6 °F 65% 29.86 in 5.6 mi ENE 16.1 mph - N/A   Mostly Cloudy
10:20 AM 37.4 °F 28.2 °F 24.8 °F 60% 29.89 in 6.2 mi NE 16.1 mph - N/A   Mostly Cloudy
10:50 AM 37.4 °F 28.2 °F 24.8 °F 60% 29.89 in 6.2 mi ENE 16.1 mph - N/A   Mostly Cloudy
11:20 AM 37.4 °F 28.9 °F 24.8 °F 60% 29.89 in 6.2 mi ENE 13.8 mph - N/A   Mostly Cloudy
11:50 AM 37.4 °F 28.2 °F 24.8 °F 60% 29.89 in 6.2 mi NE 16.1 mph - N/A   Mostly Cloudy
12:20 PM 39.2 °F 31.2 °F 24.8 °F 56% 29.89 in 6.2 mi NE 13.8 mph - N/A   Mostly Cloudy
12:50 PM 37.4 °F 28.2 °F 24.8 °F 60% 29.89 in 6.2 mi ENE 16.1 mph - N/A   Mostly Cloudy
1:50 PM 39.2 °F 31.6 °F 24.8 °F 56% 29.89 in 6.2 mi NE 12.7 mph - N/A   Mostly Cloudy
2:20 PM 39.2 °F 32.0 °F 24.8 °F 56% 29.89 in 6.2 mi ENE 11.5 mph - N/A   Mostly Cloudy
2:50 PM 37.4 °F 28.9 °F 23.0 °F 56% 29.89 in 6.2 mi NE 13.8 mph - N/A   Scattered Clouds
3:20 PM 39.2 °F 31.2 °F 23.0 °F 52% 29.89 in 6.2 mi ENE 13.8 mph - N/A   Scattered Clouds
3:50 PM 37.4 °F 29.8 °F 21.2 °F 52% 29.89 in 6.2 mi NE 11.5 mph - N/A   Scattered Clouds
4:20 PM 37.4 °F 29.8 °F 21.2 °F 52% 29.89 in 6.2 mi NNE 11.5 mph - N/A   Scattered Clouds
4:50 PM 37.4 °F 30.3 °F 24.8 °F 60% 29.89 in 6.2 mi NNE 10.4 mph - N/A   Mostly Cloudy
5:20 PM 35.6 °F 28.6 °F 23.0 °F 60% 29.92 in 6.2 mi NNE 9.2 mph - N/A   Mostly Cloudy
5:50 PM 37.4 °F 30.8 °F 24.8 °F 60% 29.92 in 6.2 mi NNE 9.2 mph - N/A   Mostly Cloudy
6:20 PM 35.6 °F 29.2 °F 24.8 °F 65% 29.92 in 6.2 mi NNE 8.1 mph - N/A   Mostly Cloudy
6:50 PM 35.6 °F 27.5 °F 23.0 °F 60% 29.92 in 6.2 mi NNE 11.5 mph - N/A   Mostly Cloudy
7:20 PM 35.6 °F 29.9 °F 23.0 °F 60% 29.92 in 6.2 mi NNE 6.9 mph - N/A   Mostly Cloudy
7:50 PM 33.8 °F 27.7 °F 23.0 °F 65% 29.92 in 6.2 mi North 6.9 mph - N/A   Mostly Cloudy
8:20 PM 33.8 °F 28.6 °F 24.8 °F 70% 29.92 in 6.2 mi North 5.8 mph - N/A   Mostly Cloudy
8:50 PM 33.8 °F 28.6 °F 23.0 °F 65% 29.95 in 6.2 mi North 5.8 mph - N/A   Mostly Cloudy
9:20 PM 35.6 °F 29.2 °F 24.8 °F 65% 29.95 in 6.2 mi North 8.1 mph - N/A   Mostly Cloudy
9:50 PM 33.8 °F 27.7 °F 24.8 °F 70% 29.92 in 6.2 mi North 6.9 mph - N/A   Mostly Cloudy
10:20 PM 33.8 °F 27.0 °F 24.8 °F 70% 29.92 in 6.2 mi North 8.1 mph - N/A   Mostly Cloudy
10:50 PM 32.0 °F 24.8 °F 24.8 °F 75% 29.92 in 6.2 mi North 8.1 mph - N/A   Mostly Cloudy
11:20 PM 32.0 °F 25.6 °F 24.8 °F 75% 29.89 in 6.2 mi North 6.9 mph - N/A   Mostly Cloudy
11:50 PM 32.0 °F 24.8 °F 24.8 °F 75% 29.89 in 6.2 mi North 8.1 mph - N/A   Mostly Cloudy